Regional Weather Roundup
Issued by NWS Northern Indiana

Home | Current Version | Previous Version | Text Only | Print | Product List | Glossary On
Versions: 1 2 3 4 5 6 7 8 9 10 11 12 13 14 15 16 17 18 19 20 21 22 23 24 25 26 27 28 29 30 31 32 33 34 35 36 37 38 39 40 41 42 43 44 45 46 47 48 49 50
000
ASUS43 KIWX 240110
RWRIWX

KIWX WEATHER ROUNDUP
NATIONAL WEATHER SERVICE NORTHERN INDIANA
900 PM EDT WED JUL 23 2014

NOTE: "FAIR" INDICATES FEW OR NO CLOUDS BELOW 12,000 FEET WITH NO
SIGNIFICANT WEATHER AND/OR OBSTRUCTIONS TO VISIBILITY.

* THESE STATIONS ARE NOT UNDER NWS QUALITY CONTROL. THEY ALSO MAY NOT
  REPORT WEATHER SUCH AS PRECIPITATION OR FOG.

INZ001>027-240200-
NORTHERN INDIANA

CITY           SKY/WX    TMP DP  RH WIND       PRES   REMARKS
GARY*          PTCLDY    64  52  63 N25       30.14S
VALPARAISO     CLEAR     62  50  64 VRB6G16   30.12R
MICHIGAN CITY* CLEAR     61  50  67 N9        30.12S
LAPORTE*       CLEAR     61  52  71 N12       30.12S
KNOX*          CLEAR     63  51  66 N7        30.10S
SOUTH BEND     CLEAR     64  52  64 N13       30.10R
GOSHEN         PTCLDY    68  58  70 NW10      30.08R
MONTICELLO*    CLEAR     64  53  68 N9        30.08S
LOGANSPORT*    CLEAR     64  55  72 N10       30.08S
ROCHESTER*     CLEAR     68  55  64 NW8       30.09R
WARSAW*        PTCLDY    66  59  77 NW8       30.07R
ANGOLA*        MOCLDY    70  61  73 NE3       30.07R
FORT WAYNE     MOCLDY    71  57  61 N8        30.05R
HUNTINGTON*    MOCLDY    69  59  69 N5        30.05R
PERU/GRISSOM   CLEAR     68  62  82 N12       30.07R
MARION*        MOCLDY    70  58  66 N5        30.05R

$$
INZ028>050-240200-
CENTRAL INDIANA

CITY           SKY/WX    TMP DP  RH WIND       PRES   REMARKS
LAFAYETTE      CLEAR     65  50  58 N12G23    30.08S
KOKOMO*        CLEAR     68  61  77 N12       30.06R
MUNCIE*        MOCLDY    69  61  75 N7        30.03S
INDIANAPOLIS   MOCLDY    71  61  70 N14       30.03R

$$
MIZ043>046-050>051-056>058-064>065-071>073-077>080-240200-
SOUTHWEST LOWER MICHIGAN

CITY           SKY/WX    TMP DP  RH WIND       PRES   REMARKS
BATTLE CREEK   CLEAR     69  54  58 N8        30.09R
BENTON HARBOR  CLEAR     62  56  80 N6        30.10S
COLDWATER*     CLEAR     70  55  60 N7        30.08R
HILLSDALE*     PTCLDY    69  56  63 N6        30.08R
HOLLAND        CLEAR     66  57  72 NW5       30.11R
GRAND RAPIDS   PTCLDY    66  53  63 N10       30.11R
KALAMAZOO      MOCLDY    69  55  60 N8        30.09R
STURGIS*       CLOUDY    68  57  68 CALM      30.07R
THREE RIVERS*  FAIR      68  61  77 NW7       30.09R

$$
OHZ001>008-015>018-024>025-240200-
NORTHWEST OHIO

CITY           SKY/WX    TMP DP  RH WIND       PRES   REMARKS
WAUSEON*       MOCLDY    66  61  82 E3        30.06S
DEFIANCE       CLOUDY    70  57  63 NE6       30.05R
FINDLAY        PTCLDY    67  60  78 NE9       30.04S
TOLEDO EXPRESS CLOUDY    69  56  62 NE6       30.06R
TOLEDO METCALF MOCLDY    66  58  75 E5        30.06S
LIMA           CLOUDY    67  61  81 E10       30.05R

$$
&&


USA.gov is the U.S. government's official web portal to all federal, state and local government web resources and services.